Find Starlink 5773

NORAD ID: 57074 Int'l Des: 2023-088 Owner: SPXS Country: US Constellation: starlink operational
LEOCIRCULAR

Current View

Loading 3D Globe...

About Starlink 5773

Description loading...

Upcoming Passes

Passes for default location (London). Set your location on the main map for personalized predictions.

Altitude History

Loading altitude history...

Two-Line Element Set

1 57074U 23088AC 26150.63606510 -.00000068 00000-0 70337-5 0 9995
2 57074 43.0023 11.3920 0000856 266.7970 93.2783 15.27579304162823
Epoch: May 30, 2026 • Age: 7 hours

Current Status

Altitude 495.4 km
Velocity 7.62 km/s
Sub-Earth Point -42.18°S, 36.22°E
Launch Date Jun 22, 2023
Age 2.9 years
Type internet

Technical Details

Classification Payload
Mass 305.00 kg
Dry Mass 290.00 kg
Total Mass 305.00 kg
Length 0.20 m
Diameter 2.80 m
Span 9.00 m
Shape Box + pan
Manufacturer SPXS
Bus Type Starlink
Phase Status In Orbit
Owner/State SPXS/US

Most Searched